Tracking 34719 objects as of 13-Jul-2026
HD Live streaming from Space Station
objects crossing your sky now

SCOUT A-1 R/B


10-day predictions


NORAD ID: 6910
Int'l Code: 1973-081B
Perigee: 892.3 km
Apogee: 1,122.6 km
Inclination: 89.9 °
Period: 105.1 minutes
Semi major axis: 7378 km
RCS: 0.6465 m2 (medium)
Launch date: October 30, 1973
Source: United States (US)
Launch site: AIR FORCE WESTERN TEST RANGE (AFWTR)

Note: This is a ROCKET BODY
Your satellite tracking list
Your tracking list is empty




NASA's NSSDC Master Catalog

Two Line Element Set (TLE):
1  6910U 73081B   26193.65385802  .00000095  00000-0  90171-4 0  9999
2  6910  89.8689 249.7569 0156074 233.7160 124.9502 13.69791862630311
Source of the keplerian elements: AFSPC